Weather Service Report


174 
ASUS41 KBTV 281810
RWRBTV
VERMONT REGIONAL WEATHER ROUNDUP
NATIONAL WEATHER SERVICE BURLINGTON VT
200 PM EDT THU AUG 28 2014

NOTE: "FAIR" INDICATES FEW OR NO CLOUDS BELOW 12,000 FEET WITH NO 
SIGNIFICANT WEATHER AND/OR OBSTRUCTIONS TO VISIBILITY.

* THESE REPORTS ARE NOT UNDER NWS QUALITY CONTROL AND/OR DO NOT
  REPORT WEATHER SUCH AS PRECIPITATION AND FOG.

VTZ001>019-281900-
_____VERMONT_____

  
CITY           SKY/WX    TMP DP  RH WIND       PRES   REMARKS
BURLINGTON     MOCLDY    72  49  44 N16       29.93R                  
6HR MIN TEMP:  64; 6HR MAX TEMP:  73;                                

MONTPELIER     MOCLDY    65  51  60 NW13      29.95S                  
6HR MIN TEMP:  58; 6HR MAX TEMP:  67; 6HR PCP: TRACE;                

MORRISVILLE    MOCLDY    69  50  50 NW10      29.93S                  
6HR MIN TEMP:  61; 6HR MAX TEMP:  69;                                

ST. JOHNSBURY*   N/A     68  46  45 MISG      29.87S                  
6HR MIN TEMP:  56; 6HR MAX TEMP:  70;                                

MIDDLEBURY*    CLOUDY    67  54  61 N5        29.92S                  
6HR MIN TEMP:  63; 6HR MAX TEMP:  70;                                

RUTLAND*       MOCLDY    70  52  52 N12G20    29.91S                  
6HR MIN TEMP:  61; 6HR MAX TEMP:  70;                                

SPRINGFIELD    CLOUDY    72  46  39 NW14G23   29.88S                  
6HR MIN TEMP:  61; 6HR MAX TEMP:  74;                                

HIGHGATE*      MOCLDY    67  49  53 NW6       29.92S                  
6HR MIN TEMP:  62; 6HR MAX TEMP:  70;                                

NEWPORT*       FAIR      67  48  50 W15G24    29.91S                  
6HR MIN TEMP:  58; 6HR MAX TEMP:  67;                                

BENNINGTON     MOCLDY    71  54  54 N13G20    29.90S                  
6HR MIN TEMP:  62; 6HR MAX TEMP:  74;                                

SUTTON*          N/A     61 N/A N/A MISG        N/A                   

_____LAKE CHAMPLAIN_____

  
CITY           SKY/WX    TMP DP  RH WIND       PRES   REMARKS
COLCHESTER RF*   N/A     68  50  52 N20         N/A                   
DIAMOND ISL*     N/A     66  52  59 N13         N/A                   

$$

NYZ007-026>031-035-052-083-281900-
_____NORTHERN NEW YORK_____

  
CITY           SKY/WX    TMP DP  RH WIND       PRES   REMARKS
PLATTSBURGH    CLOUDY    68  49  50 N10       29.93R                  
6HR MIN TEMP:  64; 6HR MAX TEMP:  73;                                

SARANAC LAKE   MOCLDY    63  47  55 MISG      29.96S                  
6HR MIN TEMP:  57; 6HR MAX TEMP:  64;                                

MASSENA        CLOUDY    67  50  54 NW10      29.97R                  
6HR MIN TEMP:  61; 6HR MAX TEMP:  70;                                

OGDENSBURG*    PTCLDY    70  50  49 NW9       29.98S                  
POTSDAM*       MOCLDY    70  54  56 N6        29.97S                  
WATERTOWN      CLOUDY    68  52  56 NW9       30.00S                  
6HR MIN TEMP:  63; 6HR MAX TEMP:  70;                                

FT DRUM        MOCLDY    66  50  55 N8G17     29.99S                  
6HR MIN TEMP:  60; 6HR MAX TEMP:  68;                                

ALBANY         MOCLDY    73  54  51 W16       29.91S                  
6HR MIN TEMP:  65; 6HR MAX TEMP:  75;                                

GLENS FALLS    MOCLDY    74  51  44 N13       29.90S                  
6HR MIN TEMP:  65; 6HR MAX TEMP:  74;                                


$$
NHZ002-005-011-281900-
_____NEW HAMPSHIRE_____

  
CITY           SKY/WX    TMP DP  RH WIND       PRES   REMARKS
LEBANON        MOCLDY    74  48  39 NW13G20   29.87S                  
6HR MIN TEMP:  64; 6HR MAX TEMP:  76;                                

KEENE          PTCLDY    75  46  35 N10G22    29.86S                  
6HR MIN TEMP:  61; 6HR MAX TEMP:  75;                                

MT WASHINGTON  FOG       41  41 100 W46G66      N/A  VSB 0            
6HR MIN TEMP:  40; 6HR MAX TEMP:  42;                                

PLYMOUTH       CLOUDY    69  55  61 NW10G18   29.85R                  
6HR MIN TEMP:  64; 6HR MAX TEMP:  73;                                

WHITEFIELD     MOCLDY    69  51  52 NW14G20   29.87S                  
6HR MIN TEMP:  58; 6HR MAX TEMP:  70;                                


$$

_____REGIONAL QUEBEC LOCATIONS_____

  
CITY           SKY/WX    TMP DP  RH WIND       PRES   REMARKS
MONTREAL       CLOUDY    68  46  45 NW12G21   29.93R                  
QUEBEC CITY    MOCLDY    66  50  55 NW15G25   29.85S                  
SHERBROOKE     CLOUDY    63  52  67 NW15G25   29.89R                  

_____REGIONAL ONTARIO LOCATIONS_____

  
CITY           SKY/WX    TMP DP  RH WIND       PRES   REMARKS
OTTAWA         MOCLDY    66  48  52 NW16G23   29.99R                  

______KEY______
VSB  - VISIBILITY IN MILES
WCI  - WIND CHILL INDEX
HX   - HEAT INDEX
$$
NNNN

Return to Home page


Western Regional Climate Center, wrcc@dri.edu